Cavern City Air Terminal
KCNM : now visible

Airfield :











YOU CAN JOIN US ON...

 
LOGIN :

Register | Disclaimer

   EN    FR    IT 

 









Legend :    VFR   Marginal VFR   IFR   Intensive IFR   Very Intensive IFR
Visi :
Ceiling :
>= 8 km
>= 3000ft
5 to 8 km
1000 to 3000 ft
1500m to 5 km
500 to 1000 ft
800 to 1500m
200 to 500 ft
< 800m
< 200 ft
Symbols :   Thunderstorms  Fog  Heavy snow  Heavy precipitations  Wind > 20 kt






- Airport Elevation : 3295 ft
- IATA code : CNM


KCNM - Cavern City Air Terminal

CURRENT METAR :
  • 060453Z AUTO 15004KT 10SM CLR 27/16 A2999 RMK AO2 SLP091 T02670156

EXPIRED METARs :
  • 060353Z AUTO 07006KT 10SM CLR 27/15 A2998 RMK AO2 SLP092 T02720150
  • 060253Z AUTO 10011KT 10SM CLR 29/13 A2993 RMK AO2 SLP071 T02890133 53025

TAF KCNM
Valid from the 06 at 04:00 until the 07 at 00:00 UTC


060429Z 0604/0624 11008KT P6SM SCT100 BKN250
TEMPO 0604/0606 VRB10G25KT -TSRA BKN050CB
FM060900 09008KT P6SM SCT250
KZAB FIR / North America



MET'MAP, your aeronautical weather chart ! - Copyright ORBIFLY December 2007 - Disclaimer

ORBIFLY MET'MAP TEAM :

Programming & Development : Alexandra Zaïnal
Concept & original design : Baudouin d'Aumeries
Assistance for programming : Marc-Olivier Méhu
Technical & hardware support : Manuel Goepfert

Contact : metmap@orbifly.com




SOURCES & CREDITS :

   NOAA       Earth
Advisory